Regional Weather Roundup
Issued by NWS Sioux Falls, SD

Home | Current Version | Previous Version | Graphics & Text | Print | Product List | Glossary On
Versions: 1 2 3 4 5 6 7 8 9 10 11 12 13 14 15 16 17 18 19 20 21 22 23 24 25 26 27 28 29 30 31 32 33 34 35 36 37 38 39 40 41 42 43 44 45 46 47 48 49 50
000
ASUS43 KFSD 212002
RWRFSD

WEATHER ROUNDUP FOR SE SOUTH DAKOTA/SW MINNESOTA/NW IOWA
NATIONAL WEATHER SERVICE SIOUX FALLS SD
200 PM CST WED FEB 21 2018

NOTE: "FAIR" INDICATES FEW OR NO CLOUDS BELOW 12,000 FEET WITH NO
SIGNIFICANT WEATHER AND OR OBSTRUCTIONS TO VISIBILITY.


SDZ038>040-050-052>070-212100-
SOUTHEAST SOUTH DAKOTA

CITY           SKY/WX    TMP DP  RH WIND       PRES   REMARKS
BROOKINGS      FAIR      15   3  59 SW8       30.54  WCI   4
CHAMBERLAIN    FAIR      22   7  53 SE8       30.49F WCI  12
HURON          FAIR      15   3  59 S10       30.56F WCI   2
MADISON        FAIR      14   0  52 SW9       30.54S WCI   2
MITCHELL       FAIR      17   2  51 S14       30.58F WCI   3
SIOUX FALLS    PTSUNNY   15   3  59 S13       30.58R WCI   1
WINNER         FAIR      21   7  54 S15       30.43F WCI   8
YANKTON        FAIR      17   3  54 SE9       30.59F WCI   6
$$

MNZ071-072-080-081-089-090-097-098-212100-
SOUTHWEST MINNESOTA

CITY           SKY/WX    TMP DP  RH WIND       PRES   REMARKS
FAIRMONT       FAIR      19   5  54 W3        30.63S
JACKSON        FAIR      18   1  49 W5        30.59S WCI  11
LUVERNE        FAIR      14   3  62 S6        30.59S WCI   5
MARSHALL       FAIR      18   3  52 W13       30.58F WCI   5
MONTEVIDEO     FAIR      21   3  45 W8        30.59S WCI  12
PIPESTONE      FAIR      12   1  62 SW3       30.54F
REDWOOD FALLS  FAIR      15   5  64 VRB3      30.60F
TRACY          FAIR      18   6  60 SW9       30.57S WCI   7
WORTHINGTON    FAIR      19   4  51 W7        30.58R WCI  10
$$

IAZ001>003-012>014-020>022-031-032-NEZ013-014-SDZ071-212100-
NORTHWEST IOWA

CITY           SKY/WX    TMP DP  RH WIND       PRES   REMARKS
CHEROKEE       FAIR      21   9  60 SE5       30.60F WCI  15
DENISON        FAIR      21  10  63 VRB6      30.61F WCI  14
ESTHERVILLE    FAIR      16   6  65 SW5       30.60S WCI   9
LE MARS        FAIR      18   5  57 S5        30.61F WCI  11
ORANGE CITY    FAIR      16  10  79 S6        30.59S WCI   7
SHELDON        FAIR      16   5  62 S6        30.59S WCI   7
SIOUX CITY     FAIR      19   7  59 E3        30.62F
SPENCER        FLURRIES  18   6  59 VRB3      30.61S
STORM LAKE     FAIR      18   7  62 S3        30.58F
$$

ABBREVIATIONS USED IN REMARKS
   TC - TEMPERATURE IN CELSIUS
  WCI - WIND CHILL INDEX
   HX - HEAT INDEX
  VSB - VISIBILITY





USA.gov is the U.S. government's official web portal to all federal, state and local government web resources and services.